This is the latest recevied weather packets stored in our database for station/object IW0REF-9. If no packets are shown the sender has not sent any weather packets the latest 10 day(s).
| Time | Temp. | Humidity | Pressure | Rain* | Wind** | Luminosity | Snow |
|---|---|---|---|---|---|---|---|
| 1778064810 | 23.89° C | 36% | 997.4 hPa | - | - | - | - |
| 1778063909 | 24.44° C | 37% | 997.3 hPa | - | - | - | - |
| 1778063009 | 23.89° C | 36% | 997.4 hPa | - | - | - | - |
| 1778062109 | 24.44° C | 37% | 997.3 hPa | - | - | - | - |
| 1778061209 | 23.89° C | 39% | 997.3 hPa | - | - | - | - |
| 1778060311 | 22.78° C | 40% | 997.4 hPa | - | - | - | - |
| 1778059409 | 21.67° C | 39% | 997.3 hPa | - | - | - | - |
| 1778058509 | 21.11° C | 39% | 997.4 hPa | - | - | - | - |
| 1778057609 | 21.11° C | 38% | 997.4 hPa | - | - | - | - |
| 1778056709 | 21.67° C | 39% | 997.1 hPa | - | - | - | - |
| 1778055808 | 21.67° C | 39% | 997.1 hPa | - | - | - | - |
| 1778054909 | 21.67° C | 40% | 997.1 hPa | - | - | - | - |
| 1778054008 | 20° C | 40% | 997.1 hPa | - | - | - | - |
| 1778053108 | 18.89° C | 41% | 996.9 hPa | - | - | - | - |
| 1778052208 | 18.89° C | 39% | 997.3 hPa | - | - | - | - |
| 1778051308 | 19.44° C | 40% | 997.2 hPa | - | - | - | - |
| 1778050408 | 18.89° C | 41% | 997.3 hPa | - | - | - | - |
| 1778049508 | 18.89° C | 40% | 997.2 hPa | - | - | - | - |
| 1778048608 | 18.33° C | 42% | 997.1 hPa | - | - | - | - |
| 1778047708 | 17.78° C | 42% | 997.3 hPa | - | - | - | - |
| 1778046807 | 17.78° C | 43% | 997.3 hPa | - | - | - | - |
| 1778045907 | 17.22° C | 43% | 997.2 hPa | - | - | - | - |
| 1778045007 | 17.22° C | 44% | 996.9 hPa | - | - | - | - |
| 1778044107 | 17.22° C | 44% | 996.9 hPa | - | - | - | - |
| 1778043207 | 16.67° C | 45% | 997 hPa | - | - | - | - |
* Rain since midnight (hover to see other rain measurements)
** Current wind speed in m/s (hover to see current wind gust speed)